Location: Claremont
(33.9858°S, 18.4575°E)
Time: 16:52:56
(UTC+00:00)

DASH - Visible Passes

Search period start: 24 June 2021 00:00
Search period end: 04 July 2021 00:00
Orbit: 403 x 34856 km, 28.4° (Epoch: 24 June)

Date Brightness Start Highest point End Pass type
(mag) Time Alt. Az. Time Alt. Az. Time Alt. Az.
24 Jun 7.8 22:42:57 10° N 07:26:41 56° NNE 07:43:02 10° E visible
25 Jun 9.8 23:18:11 10° NE 03:03:56 30° NE 03:59:06 10° E visible
27 Jun 7.8 22:43:24 10° N 07:26:58 58° NNE 07:42:28 10° E visible
28 Jun 9.7 23:01:12 10° NE 03:05:03 33° NE 03:59:47 10° E visible
30 Jun 7.7 22:43:38 10° N 07:27:09 60° NNE 07:41:50 10° E visible
01 Jul 9.6 22:44:29 10° NE 03:06:09 35° NE 04:00:12 10° E visible
